[[{"header":{"parameterUnit":"m.s-1","parameterCategory":1,"la1":30.2991,"la2":30.254,"lo1":-89.0895,"lo2":-89.0444,"dy":0.0017,"dx":0.0017,"nx":28,"ny":28,"refTime":"2025-12-16T09:00:00:Z","depth":0,"parameterNumber":2,"parameterNumberName":"U-component_of_WINDS"},"data":[0,0,0,0,0,0,0,0,0,0,0,0,0,0,0,0,0,0,0,0,0,0,0,0,0,0,0,0,0,0,0,0,0,0,0,0,0,0,0,0,0,0,0,0,0,0,0,0,0,0,0,0,0,0,0,0,0,0,-5.2056,-5.2057,0,-5.2116,-5.2116,-5.2117,-5.1989,-5.1985,-5.1981,-5.1977,-5.2037,-5.2042,-5.2047,0,0,0,0,0,0,0,0,0,0,0,0,0,-5.183,-5.1835,-5.2056,-5.2057,-5.2057,-5.2116,-5.2116,-5.2117,-5.199,-5.1985,-5.198,-5.1975,-5.2035,-5.2041,-5.2048,0,0,0,0,0,0,0,0,0,0,0,0,0,-5.1913,-5.1836,-5.2056,-5.2001,-5.1997,-5.2115,-5.2116,-5.2117,-5.1991,-5.1985,-5.1979,-5.1973,-5.2033,-5.2041,-5.2049,-5.2223,0,0,-5.2074,-5.2077,0,0,0,0,0,0,0,0,-5.1908,-5.1921,-5.2008,-5.2005,-5.2,-5.2039,-5.2058,-5.2153,-5.1993,-5.1993,-5.1977,-5.197,-5.2042,-5.2049,-5.2074,-5.2226,-5.2229,-5.2074,-5.2079,-5.2083,-5.2085,0,0,0,0,0,0,0,-5.1903,-5.1918,-5.2079,-5.201,-5.2005,-5.1973,-5.1978,-5.2076,-5.2052,-5.1993,-5.1983,-5.1992,-5.2039,-5.2067,-5.2074,-5.2229,-5.2074,-5.2081,-5.2086,-5.209,-5.2526,-5.2533,0,0,0,0,0,0,-5.1904,-5.1914,-5.2077,-5.2081,-5.1938,-5.1982,-5.1987,-5.2033,-5.205,-5.2047,-5.1998,-5.1986,-5.2056,-5.2065,-5.2076,-5.228,-5.2083,-5.209,-5.2095,-5.252,-5.2528,-5.2535,0,0,0,0,0,0,-5.19,-5.192,-5.2075,-5.1995,-5.2013,-5.1992,-5.2044,-5.2037,-5.2064,-5.2054,-5.2049,-5.203,-5.2051,-5.2065,-5.2187,-5.228,-5.2094,-5.2102,-5.2512,-5.2522,-5.2531,-5.269,0,0,0,0,0,0,-5.1894,-5.1919,-5.1985,-5.1998,-5.2017,-5.2186,-5.205,-5.2043,-5.2079,-5.2065,-5.2083,-5.208,-5.2047,-5.2176,-5.2196,-5.2288,-5.2108,-5.2503,-5.2516,-5.2528,-5.2676,-5.2704,-5.2728,0,0,0,0,0,-5.1886,-5.2027,-5.1989,-5.201,-5.21,-5.2192,-5.2203,-5.2162,-5.2087,-5.2153,-5.2146,-5.208,-5.2268,-5.219,-5.2211,-5.2307,-5.2497,-5.2513,-5.2527,-5.2664,-5.2698,-5.2727,0,0,0,0,0,0,-5.2026,-5.2028,-5.1986,-5.2135,-5.2165,-5.217,-5.2252,-5.22,-5.225,-5.2234,-5.2182,-5.2187,-5.232,-5.2326,-5.2239,-5.2476,-5.2369,-5.239,-5.2467,-5.2499,-5.2524,-5.2519,-5.2115,0,0,0,0,0,-5.2074,-5.2149,-5.2147,-5.2279,-5.2296,-5.2272,-5.2311,-5.2277,-5.2305,-5.2316,-5.2318,-5.2347,-5.2412,-5.2457,-5.2516,-5.2678,-5.2679,-5.2754,-5.278,-5.2801,-5.2818,-5.2903,-5.2936,-5.2585,-5.2584,-5.2584,0,0,-5.2174,-5.2185,-5.2235,-5.2308,-5.2326,-5.2404,-5.2283,-5.2371,-5.2428,-5.2329,-5.2444,-5.2448,-5.2477,-5.262,-5.2682,-5.2629,-5.2916,-5.2821,-5.2838,-5.2843,-5.2922,-5.2955,-5.2984,-5.2595,-5.2593,-5.2591,0,0,-5.2396,-5.2413,-5.2523,-5.2545,-5.2575,-5.2558,-5.2586,-5.26,-5.2598,-5.2714,-5.2641,-5.2708,-5.2822,-5.2845,-5.2872,-5.3105,-5.3045,-5.3126,-5.326,-5.3343,-5.337,-5.3394,-5.3475,-5.3505,-5.3144,-5.3144,-5.3144,0,-5.2516,-5.2631,-5.2587,-5.268,-5.2713,-5.2629,-5.2741,-5.2764,-5.2812,-5.2836,-5.2776,-5.2917,-5.2931,-5.3077,-5.3134,-5.3159,-5.3187,-5.3122,-5.337,-5.3394,-5.3416,-5.3492,-5.3523,-5.3153,-5.3152,-5.3151,-5.315,0,-5.2776,-5.2858,-5.2944,-5.2992,-5.3036,-5.3138,-5.3109,-5.3159,-5.3122,-5.3112,-5.323,-5.3244,-5.3305,-5.3338,-5.3303,-5.3479,-5.3445,-5.3379,-5.327,-5.3459,-5.353,-5.3559,-5.3167,-5.3164,-5.3161,-5.3158,0,0,-5.3084,-5.3109,-5.3141,-5.3162,-5.319,-5.3251,-5.335,-5.3409,-5.3452,-5.3489,-5.3568,-5.3668,-5.3607,-5.3638,-5.3605,-5.3678,-5.3859,-5.3602,-5.3602,-5.3647,-5.4052,-5.41,-5.4134,-5.3821,-5.3827,-5.3831,-5.4049,0,-5.3302,-5.347,-5.3435,-5.36,-5.3674,-5.3596,-5.3681,-5.3708,-5.3701,-5.3763,-5.3755,-5.3826,-5.3741,-5.3759,-5.3828,-5.3823,-5.3939,-5.3807,-5.3893,-5.3897,-5.3885,-5.4172,-5.4222,-5.4427,-5.4077,-5.4081,-5.4085,0,-5.3577,-5.3624,-5.3798,-5.3813,-5.3843,-5.392,-5.3972,-5.4032,-5.406,-5.4051,-5.4086,-5.404,-5.4136,-5.403,-5.4162,-5.4072,-5.4106,-5.4109,-5.4116,-5.412,-5.4,-5.418,-5.4491,-5.4521,-5.4128,-5.4125,-5.4122,0,-5.3781,-5.3889,-5.4005,-5.4026,-5.4048,-5.4104,-5.4116,-5.4138,-5.4176,-5.4222,-5.4246,-5.4303,-5.4333,-5.4378,-5.4348,-5.4274,-5.4485,-5.4376,-5.4478,-5.4479,-5.4523,-5.452,-5.4841,-5.4551,-5.455,-5.4549,-5.4549,0,-5.4025,-5.4134,-5.4097,-5.4169,-5.4288,-5.4246,-5.4365,-5.4368,-5.4389,-5.4459,-5.4396,-5.4464,-5.4421,-5.4485,-5.4463,-5.4574,-5.459,-5.4583,-5.4575,-5.4587,-5.4588,-5.4606,-5.459,-5.4558,-5.4556,-5.4554,-5.4553,0,-5.4272,-5.4252,-5.4374,-5.4386,-5.4391,-5.4478,-5.4487,-5.4554,-5.4544,-5.4634,-5.4653,-5.4637,-5.4709,-5.4685,-5.4762,-5.4747,-5.4888,-5.4863,-5.4879,-5.4871,-5.4974,-5.4963,-5.5315,-5.5358,-5.5043,-5.5046,-5.5049,0,-5.4427,-5.4509,-5.4529,-5.4572,-5.4589,-5.4659,-5.4698,-5.4661,-5.4704,-5.4743,-5.4805,-5.4871,-5.4922,-5.5041,-5.5036,-5.5095,-5.5069,-5.5189,-5.5077,-5.5087,-5.5068,-5.5062,-5.5069,-5.521,-5.5213,-5.5216,-5.5219,0,-5.4705,-5.4691,-5.475,-5.4806,-5.4854,-5.4897,-5.4933,-5.4972,-5.4937,-5.4989,-5.5062,-5.5102,-5.5181,-5.5248,-5.5301,-5.5312,-5.526,-5.5254,-5.528,-5.5292,-5.5296,-5.5292,-5.4936,-5.5245,-5.5243,-5.5241,-5.5239,-5.5238,-5.4908,-5.4977,-5.5002,-5.5069,-5.5093,-5.5129,-5.5192,-5.519,-5.5251,-5.5312,-5.5288,-5.5372,-5.5398,-5.5464,-5.5483,-5.5548,-5.5502,-5.5541,-5.555,-5.5559,-5.5571,-5.5289,-5.5558,-5.5557,-5.5557,-5.5556,-5.5555,0,-5.518,-5.5193,-5.5256,-5.5309,-5.5362,-5.531,-5.5348,-5.5395,-5.547,-5.55,-5.5552,-5.5636,-5.5701,-5.5702,-5.5762,-5.5814,-5.5791,-5.583,-5.5824,-5.5828,-5.561,-5.558,-5.5848,-5.5848,-5.5848,-5.5848,-5.5847,-5.5847,-5.5327,-5.544,-5.543,-5.5553,-5.5565,-5.5647,-5.5673,-5.5706,-5.5729,-5.5826,-5.5879,-5.588,-5.5898,-5.5959,-5.6016,-5.6015,-5.6039,-5.6087,-5.6076,-5.5872,-5.5843,-5.5815,-5.5787,-5.6093,-5.6093,-5.6288,-5.6289,-5.6291]},{"header":{"parameterUnit":"m.s-1","parameterCategory":1,"la1":30.2991,"la2":30.254,"lo1":-89.0895,"lo2":-89.0444,"dy":0.0017,"dx":0.0017,"nx":28,"ny":28,"refTime":"2025-12-16T09:00:00:Z","depth":0,"parameterNumber":3,"parameterNumberName":"V-component_of_WINDS"},"data":[0,0,0,0,0,0,0,0,0,0,0,0,0,0,0,0,0,0,0,0,0,0,0,0,0,0,0,0,0,0,0,0,0,0,0,0,0,0,0,0,0,0,0,0,0,0,0,0,0,0,0,0,0,0,0,0,0,0,1.8101,1.81,0,1.8008,1.8007,1.8005,1.7919,1.7917,1.7916,1.7915,1.7814,1.7812,1.7811,0,0,0,0,0,0,0,0,0,0,0,0,0,1.8201,1.82,1.8102,1.81,1.8099,1.8008,1.8006,1.8005,1.7919,1.7917,1.7916,1.7915,1.7815,1.7813,1.781,0,0,0,0,0,0,0,0,0,0,0,0,0,1.8138,1.8199,1.8102,1.8045,1.8039,1.8008,1.8006,1.8005,1.7919,1.7917,1.7916,1.7914,1.7815,1.7813,1.781,1.7826,0,0,1.7802,1.7801,0,0,0,0,0,0,0,0,1.8141,1.8134,1.8055,1.8049,1.8042,1.7973,1.8004,1.7945,1.7919,1.7964,1.7915,1.7914,1.7868,1.7861,1.7847,1.7821,1.7817,1.7802,1.78,1.7799,1.7799,0,0,0,0,0,0,0,1.8146,1.8137,1.8064,1.8054,1.8046,1.8023,1.8012,1.7993,1.7926,1.796,1.7954,1.7944,1.7864,1.7849,1.7844,1.7815,1.7802,1.78,1.7798,1.7797,1.7797,1.7798,0,0,0,0,0,0,1.8159,1.8142,1.8067,1.8061,1.8089,1.8022,1.801,1.7997,1.7926,1.7914,1.7946,1.7941,1.7854,1.7847,1.784,1.7852,1.7799,1.7797,1.7795,1.7795,1.7797,1.7799,0,0,0,0,0,0,1.8162,1.8154,1.8071,1.81,1.8087,1.8022,1.8008,1.7996,1.7981,1.7915,1.7902,1.7943,1.7853,1.7843,1.783,1.7848,1.7796,1.7793,1.7793,1.7796,1.7798,1.7879,0,0,0,0,0,0,1.8165,1.8155,1.8162,1.8101,1.8086,1.8065,1.8009,1.7995,1.7977,1.797,1.7909,1.7897,1.7851,1.7834,1.7828,1.7843,1.7791,1.7791,1.7794,1.7797,1.7875,1.7884,1.7892,0,0,0,0,0,1.8169,1.8187,1.8162,1.8154,1.8093,1.8066,1.8057,1.8005,1.7979,1.7984,1.7942,1.7899,1.7848,1.7834,1.7825,1.7841,1.779,1.7794,1.7797,1.7871,1.7882,1.7892,0,0,0,0,0,0,1.825,1.8178,1.815,1.8149,1.8115,1.8051,1.8056,1.8019,1.799,1.7984,1.7918,1.7905,1.7899,1.7868,1.7855,1.7852,1.7813,1.7815,1.7872,1.7882,1.7891,1.7897,1.7789,0,0,0,0,0,1.8268,1.8253,1.8191,1.8196,1.818,1.8122,1.8108,1.8071,1.8031,1.8016,1.7972,1.7935,1.7909,1.7894,1.7868,1.787,1.7855,1.7876,1.7885,1.7893,1.7895,1.7893,1.7901,1.781,1.781,1.781,0,0,1.8304,1.8263,1.8258,1.8211,1.818,1.8165,1.811,1.8096,1.8084,1.8013,1.7998,1.7965,1.7919,1.7913,1.7909,1.7887,1.7917,1.7897,1.7904,1.7901,1.7897,1.7906,1.7913,1.7812,1.7812,1.7812,0,0,1.8363,1.8331,1.8332,1.8302,1.8256,1.8217,1.8218,1.816,1.8136,1.8121,1.8068,1.8051,1.801,1.7979,1.7957,1.8005,1.7964,1.7998,1.8043,1.8042,1.8049,1.8055,1.8071,1.8078,1.8001,1.8001,1.8001,0,1.8413,1.839,1.8336,1.8326,1.8306,1.8244,1.8244,1.8217,1.8164,1.8151,1.8129,1.8076,1.804,1.8026,1.8038,1.8023,1.802,1.8004,1.8053,1.8058,1.8063,1.8077,1.8084,1.8005,1.8005,1.8004,1.8004,0,1.8453,1.8438,1.8444,1.8397,1.8378,1.8373,1.8317,1.8304,1.8269,1.8232,1.8216,1.8172,1.8135,1.8129,1.8093,1.811,1.8098,1.8065,1.8025,1.8077,1.8089,1.8094,1.8011,1.801,1.8008,1.8007,0,0,1.8559,1.8483,1.8486,1.8464,1.8409,1.8395,1.8387,1.8352,1.8342,1.8308,1.8298,1.8265,1.8235,1.8211,1.8171,1.8171,1.821,1.8137,1.8135,1.8152,1.8224,1.8248,1.8256,1.8184,1.8185,1.8185,1.8227,0,1.8607,1.859,1.8542,1.8538,1.8523,1.8464,1.8456,1.8421,1.8386,1.8367,1.8327,1.8305,1.8267,1.8252,1.8249,1.8206,1.8224,1.8203,1.8172,1.8171,1.8184,1.8262,1.8287,1.8329,1.8232,1.8233,1.8233,0,1.8661,1.8633,1.8628,1.8575,1.8566,1.856,1.8525,1.8508,1.8466,1.8441,1.8415,1.8372,1.8358,1.8322,1.8301,1.8288,1.8272,1.825,1.825,1.8244,1.8205,1.8257,1.8342,1.8348,1.8241,1.824,1.824,0,1.8737,1.8697,1.869,1.8672,1.861,1.8607,1.8581,1.8538,1.852,1.8489,1.8476,1.8444,1.8425,1.84,1.8348,1.8327,1.8333,1.8292,1.8309,1.8311,1.8312,1.8312,1.8394,1.8305,1.8305,1.8304,1.8304,0,1.8795,1.8794,1.8723,1.8718,1.8715,1.866,1.8658,1.8625,1.8588,1.8574,1.8521,1.8509,1.8443,1.8423,1.8383,1.8371,1.8363,1.8341,1.833,1.8345,1.8347,1.8332,1.8328,1.8306,1.8306,1.8305,1.8305,0,1.8879,1.8831,1.8819,1.8761,1.8747,1.8747,1.8697,1.8689,1.8652,1.8635,1.8628,1.8569,1.8543,1.849,1.8448,1.8421,1.8418,1.8399,1.8432,1.8425,1.8445,1.8443,1.8519,1.8526,1.8434,1.8435,1.8436,0,1.8918,1.8917,1.886,1.8848,1.8824,1.8805,1.8788,1.8733,1.8716,1.8669,1.8667,1.8637,1.861,1.857,1.8522,1.849,1.8469,1.8498,1.8464,1.8479,1.8468,1.8469,1.8467,1.8506,1.8507,1.8508,1.8509,0,1.8994,1.897,1.8948,1.8918,1.8899,1.8871,1.8841,1.8834,1.8771,1.8755,1.8729,1.8708,1.8667,1.8637,1.8598,1.8568,1.8528,1.852,1.8522,1.8537,1.8556,1.8545,1.8452,1.8518,1.8517,1.8517,1.8516,1.8516,1.9055,1.9051,1.9011,1.8987,1.8959,1.8932,1.8922,1.8885,1.8862,1.8825,1.8794,1.877,1.8728,1.8672,1.8645,1.8624,1.8604,1.8607,1.8608,1.8609,1.8615,1.8561,1.8617,1.8616,1.8616,1.8616,1.8615,0,1.9127,1.9098,1.9077,1.9038,1.9019,1.8985,1.895,1.8936,1.8916,1.8882,1.8857,1.8826,1.8797,1.8748,1.8714,1.8707,1.8687,1.87,1.8699,1.8692,1.8635,1.8636,1.8716,1.8716,1.8716,1.8716,1.8716,1.8716,1.9162,1.9152,1.9125,1.91,1.9071,1.9049,1.9032,1.9006,1.8978,1.8947,1.8923,1.8892,1.8851,1.8814,1.8785,1.8771,1.8761,1.8779,1.8759,1.8706,1.8697,1.8688,1.8688,1.8778,1.8778,1.8818,1.8818,1.8818]}]]